Weather in Zolotorechensk

Russia / Zabaykalsky Krai     51°03′10″N   116°44′16″E
temp.,
°C
wind,
m/s
gust,
m/s
humid.,
%
clouds,
%
prec.,
mm/h
press.,
hPa
HPBL,
m
13 may, thu
thu1300:00+5wnw212575 0.0 1006362
03:00+2wsw11680 0.0 100715
06:00+2w24750 0.0 1008113
09:00+6w594190 0.0 10081022
12:00+8w61031100 0.0 10061430
15:00+7w5745100 0.1 10071372
18:00+5sw3563100 0.2 1007456
21:00+4sw117161 0.3 100712
14 may, fri
fri1400:00+1wsw22851 0.0 100829
03:000sw228950 0.0 100833
06:00−1w228599 0.0 100925
09:00+5wnw35554 0.0 1007820
12:00+7nw6649100 0.3 10061942
15:00+7nnw575388 0.7 10071691
18:00+7nw3745100 0.2 10071705
21:00+4nw25565 0.2 100997
15 may, sat
sat1500:00+2wnw22726 0.0 101216
03:00+1wnw227885 0.0 101249
06:00+1nw11780 0.0 101417
09:00+8nnw47450 0.0 10131126
12:00+12wnw45325 0.0 10111901
15:00+14w57285 0.0 10092433
18:00+14w58225 0.0 10082600
21:00+8sw11360 0.0 100810
16 may, sun
sun1600:00+7sse223866 0.0 100826
03:00+6wnw513435 0.0 1008587
06:00+2wnw614500 0.0 10091085
09:00+6wnw8144712 0.0 10071574
12:00+11wnw712345 0.0 10061685
15:00+15wnw711265 0.0 10042094
18:00+13wnw8124693 0.0 10041750
21:00+10wnw715555 0.0 10051305
17 may, mon
mon1700:00+8wnw613675 0.0 1006927
03:00+5nw512795 0.0 1008525
06:00+3w138787 0.0 1009116
09:00+8wnw4658100 0.0 1007982
12:00+13wnw694340 0.0 10041629
15:00+15w61239100 0.0 10022289
18:00+15wnw61141100 0.0 10012069
21:00+11wnw5115055 0.0 1002757